Location: Gull Harbor
(47.1000°N, 122.9000°W)
Time: 02:19:28
(UTC-08:00)

N. Korean satellite - Visible Passes

Search period start: 21 November 2017 00:00
Search period end: 01 December 2017 00:00
Orbit: 460 x 514 km, 97.2° (Epoch: 20 November)

Date Brightness Start Highest point End Pass type
(mag) Time Alt. Az. Time Alt. Az. Time Alt. Az.
21 Nov 6.6 17:47:27 10° SSE 17:50:53 52° ENE 17:54:24 10° N visible
21 Nov 10.0 19:23:25 10° WSW 19:24:45 12° W 19:26:06 10° WNW visible
22 Nov 7.9 06:44:56 10° NNE 06:48:34 47° E 06:52:12 10° S visible
22 Nov 7.4 17:24:27 10° SE 17:27:30 28° ENE 17:30:38 10° N visible
22 Nov 9.2 18:58:17 10° SW 19:01:03 21° W 19:03:52 10° NW visible
23 Nov 9.2 06:21:48 10° NE 06:25:00 26° E 06:28:10 10° SSE visible
23 Nov 8.1 17:01:56 10° ESE 17:04:13 16° ENE 17:06:31 10° NNE visible
23 Nov 8.0 18:34:05 10° SSW 18:37:26 39° W 18:40:51 10° NNW visible
24 Nov 9.9 05:59:10 10° NE 06:01:19 15° E 06:03:28 10° SE visible
24 Nov 6.6 18:10:21 10° S 18:13:52 79° WSW 18:17:31 10° NNW visible
25 Nov 6.6 17:46:57 10° SSE 17:50:25 52° ENE 17:53:58 10° N visible
25 Nov 10.0 19:22:50 10° WSW 19:24:17 12° W 19:25:44 10° WNW visible
26 Nov 7.9 06:44:28 10° NNE 06:48:07 47° E 06:51:46 10° S visible
26 Nov 7.4 17:23:56 10° SE 17:27:01 28° ENE 17:30:11 10° N visible
26 Nov 9.1 18:57:45 10° SW 19:00:33 22° W 19:03:26 10° NW visible
27 Nov 9.2 06:21:20 10° NE 06:24:31 26° E 06:27:42 10° SSE visible
27 Nov 8.1 17:01:23 10° ESE 17:03:43 17° ENE 17:06:04 10° NNE visible
27 Nov 7.9 18:33:32 10° S 18:36:55 40° W 18:40:23 10° NNW visible
28 Nov 9.9 05:58:40 10° NE 06:00:50 15° E 06:02:59 10° SE visible
28 Nov 6.6 18:09:47 10° S 18:13:21 80° WSW 18:17:02 10° NNW visible
29 Nov 6.7 17:46:23 10° SSE 17:49:53 52° ENE 17:53:28 10° N visible
29 Nov 10.0 19:22:12 10° WSW 19:23:44 12° W 19:25:17 10° WNW visible
30 Nov 7.9 06:43:56 10° NNE 06:47:36 47° E 06:51:14 10° S visible
30 Nov 7.5 17:23:20 10° SE 17:26:28 28° ENE 17:29:39 10° N visible
30 Nov 9.1 18:57:08 10° SW 19:00:00 22° W 19:02:55 10° NW visible
